Kalamata, Greece

3:25 PM EET on February 14, 2016 (GMT +0200)
Kalamata Air Base

Weather History for LGKL - November, 2012

Change the Weather History Date:

Saturday, November 3, 2012

  Actual Average Record
Temperature  
Mean Temperature 64 °F -  
Max Temperature 78 °F 68 °F 78 °F (2000)
Min Temperature 51 °F 50 °F 40 °F (2015)
Growing Degree Days 14 (Base 50)    
Moisture  
Dew Point 51 °F    
Average Humidity 63    
Maximum Humidity 94    
Minimum Humidity 28    
Precipitation  
Precipitation 0.00 in 0.19 in - ()
Sea Level Pressure  
Sea Level Pressure 30.00 in    
Wind  
Wind Speed 4 mph ()    
Max Wind Speed 12 mph    
Max Gust Speed -    
Averages and records for this station are not official NWS values.
T = Trace of Precipitation, MM = Missing Value Source: Averaged Metar Reports

Daily Weather History Graph

Daily Weather History Graph

Search for Another Location

Airport or City:

Trip Planner

Search our weather history database for the weather conditions in past years. The results will help you decide how hot, cold, wet, or windy it might be!

Date:

Astronomy

Nov. 03, 2012 Rise Set
Actual Time 6:58 AM EET 5:32 PM EET
Civil Twilight 6:31 AM EET 5:59 PM EET
Nautical Twilight 6:00 AM EET 6:29 PM EET
Astronomical Twilight 5:30 AM EET 7:00 PM EET
Moon 8:58 PM EET (11/3) 10:46 AM EET (11/3)
Length of Visible Light 11h 27m
Length of Day
10h 33m
Waning Gibbous, 82% of the Moon is Illuminated
Nov 3
Waning Gibbous
Nov 7
Last Quarter
Nov 14
New
Nov 20
First Quarter
Nov 28
Full

Hourly Weather History & Observations

Time (EET) Temp. Dew Point Humidity Pressure Visibility Wind Dir Wind Speed Gust Speed Precip Events Conditions
1:50 AM 53.6 °F 51.8 °F 94% 29.95 in - Calm Calm - N/A   Clear
4:50 AM 53.6 °F 50.0 °F 88% 29.98 in - NNW 4.6 mph - N/A   Clear
5:20 AM 53.6 °F 50.0 °F 88% 29.98 in - Calm Calm - N/A   Clear
5:50 AM 53.6 °F 50.0 °F 88% 29.98 in - Calm Calm - N/A   Clear
6:20 AM 51.8 °F 50.0 °F 94% 29.98 in - NW 4.6 mph - N/A   Clear
6:50 AM 51.8 °F 50.0 °F 94% 29.98 in - NNW 11.5 mph - N/A   Clear
7:20 AM 51.8 °F 48.2 °F 88% 29.98 in - Calm Calm - N/A   Clear
7:50 AM 53.6 °F 50.0 °F 88% 30.01 in - NNW 5.8 mph - N/A   Clear
8:20 AM 57.2 °F 51.8 °F 82% 30.01 in - North 6.9 mph - N/A   Clear
8:50 AM 60.8 °F 53.6 °F 77% 30.01 in - NNW 10.4 mph - N/A   Clear
9:50 AM 68.0 °F 51.8 °F 56% 30.01 in - North 6.9 mph - N/A   Clear
10:20 AM 71.6 °F 50.0 °F 46% 30.01 in - North 5.8 mph - N/A   Clear
10:50 AM 73.4 °F 48.2 °F 41% 30.01 in - NNE 6.9 mph - N/A   Clear
11:50 AM 75.2 °F 44.6 °F 34% 30.01 in - NNE 5.8 mph - N/A   Clear
12:20 PM 77.0 °F 44.6 °F 32% 30.01 in - Calm Calm - N/A   Clear
12:50 PM 78.8 °F 42.8 °F 28% 29.98 in - SE 4.6 mph - N/A   Clear
1:20 PM 78.8 °F 44.6 °F 30% 29.98 in - SSE 5.8 mph - N/A   Clear
1:50 PM 77.0 °F 50.0 °F 39% 29.98 in - SSW 6.9 mph - N/A   Clear
2:20 PM 75.2 °F 51.8 °F 44% 29.98 in - SW 6.9 mph - N/A   Clear
2:50 PM 75.2 °F 51.8 °F 44% 29.98 in - SSW 8.1 mph - N/A   Clear
3:20 PM 75.2 °F 51.8 °F 44% 29.98 in - SSW 6.9 mph - N/A   Clear
3:50 PM 75.2 °F 50.0 °F 41% 29.98 in - South 5.8 mph - N/A   Clear
4:20 PM 73.4 °F 53.6 °F 50% 29.98 in - South 5.8 mph - N/A   Clear
4:50 PM 71.6 °F 53.6 °F 53% 30.01 in - Calm Calm - N/A   Clear
5:20 PM 69.8 °F 53.6 °F 56% 30.01 in - Calm Calm - N/A   Clear
5:50 PM 66.2 °F 55.4 °F 68% 30.01 in - Calm Calm - N/A   Clear
6:20 PM 66.2 °F 55.4 °F 68% 30.01 in - NNE 5.8 mph - N/A   Clear
6:50 PM 66.2 °F 55.4 °F 68% 30.04 in - North 4.6 mph - N/A   Clear
7:20 PM 64.4 °F 55.4 °F 73% 30.04 in - NNE 4.6 mph - N/A   Clear
7:50 PM 62.6 °F 55.4 °F 77% 30.04 in - NNW 6.9 mph - N/A   Clear
10:50 PM 57.2 °F 53.6 °F 88% 30.06 in - NNW 5.8 mph - N/A   Clear